Home   Weather   Israel   Rishon LeZion   Past weeks
Flag for Israel

Past Weather in Rishon LeZion, Israel — Yesterday and Last 2 Weeks

Currently: 79 °F. Passing clouds. (Weather station: Ben Gurion International Airport, Israel). See more current weather

Past Weather in Rishon LeZion — Graph

°F

Rishon LeZion Temperature Yesterday

Maximum temperature yesterday: 82 °F (at 12:50 pm)
Minimum temperature yesterday: 70 °F (at 1:50 am)
Average temperature yesterday: 76 °F

High & Low Weather Summary for the Past Weeks

 TemperatureHumidityPressure
High104 °F (May 9, 11:50 am)100% (Apr 29, 4:20 am)30.04 "Hg (Apr 29, 4:20 am)
Low57 °F (Apr 28, 4:50 am)9% (May 9, 10:20 am)29.74 "Hg (May 9, 9:20 am)
Average75 °F51%29.90 "Hg
* Reported Apr 27 11:20 am — May 12 11:50 am, Rishon LeZion. Weather by CustomWeather, © 2021

Note: Actual official high and low records may vary slightly from our data, if they occured in-between our weather recording intervals... More about our weather records

Rishon LeZion Weather History for the Previous 24 Hours

Scroll right to see more
 ConditionsComfort  
Time TempWeatherWind HumidityBarometerVisibility
11:50 am
Wed, May 12
79 °FSunny.3 mph54%29.83 "Hg10 mi
11:20 am79 °FSunny.3 mph51%29.83 "Hg10 mi
10:50 am79 °FSunny.3 mph45%29.83 "Hg10 mi
10:20 am79 °FSunny.3 mph48%29.83 "Hg10 mi
9:50 am77 °FSunny.2 mph51%29.83 "Hg10 mi
9:20 am75 °FSunny.2 mph54%29.83 "Hg10 mi
8:50 am75 °FSunny.2 mph54%29.83 "Hg10 mi
8:20 am72 °FSunny.2 mph47%29.83 "Hg10 mi
7:50 am70 °FSunny.1 mph46%29.83 "Hg10 mi
7:20 am66 °FSunny.2 mph56%29.83 "Hg10 mi
6:50 am66 °FSunny.2 mph60%29.80 "Hg10 mi
6:20 am64 °FSunny.3 mph60%29.80 "Hg10 mi
5:50 am64 °FSunny.3 mph56%29.80 "Hg10 mi
5:20 am64 °FClear.3 mph60%29.80 "Hg10 mi
4:50 am64 °FClear.3 mph64%29.80 "Hg10 mi
4:20 am66 °FClear.5 mph64%29.80 "Hg10 mi
3:50 am66 °FClear.5 mph68%29.80 "Hg10 mi
3:20 am64 °FClear.3 mph68%29.80 "Hg10 mi
2:50 am68 °FClear.2 mph64%29.80 "Hg10 mi
2:20 am66 °FClear.3 mph68%29.80 "Hg10 mi
1:50 am68 °FClear.3 mph64%29.80 "Hg10 mi
1:20 am70 °FClear.5 mph64%29.80 "Hg10 mi
12:50 am68 °FClear.2 mph69%29.80 "Hg10 mi
12:20 am70 °FClear.2 mph69%29.80 "Hg10 mi
11:50 pm
Tue, May 11
72 °FClear.2 mph61%29.80 "Hg10 mi
11:20 pm72 °FClear.2 mph61%29.80 "Hg10 mi
10:50 pm72 °FClear.3 mph61%29.83 "Hg10 mi
10:20 pm72 °FClear.3 mph61%29.83 "Hg10 mi
9:50 pm73 °FClear.3 mph57%29.80 "Hg10 mi
9:20 pm73 °FClear.5 mph57%29.80 "Hg10 mi
8:50 pm73 °FClear.5 mph53%29.80 "Hg10 mi
8:20 pm75 °FClear.6 mph47%29.80 "Hg10 mi
7:50 pm75 °FClear.7 mph47%29.77 "Hg10 mi
7:20 pm77 °FSunny.9 mph47%29.77 "Hg10 mi
6:50 pm77 °FSunny.10 mph47%29.77 "Hg10 mi
6:20 pm79 °FSunny.12 mph42%29.74 "Hg10 mi
5:50 pm79 °FSunny.14 mph42%29.74 "Hg10 mi
5:20 pm81 °FSunny.14 mph42%29.74 "Hg10 mi
4:50 pm81 °FSunny.15 mph42%29.74 "Hg10 mi
4:20 pm82 °FSunny.14 mph35%29.74 "Hg10 mi
3:50 pm82 °FSunny.12 mph32%29.77 "Hg10 mi
3:20 pm82 °FSunny.13 mph35%29.77 "Hg10 mi
2:50 pm82 °FSunny.12 mph40%29.77 "Hg10 mi
2:20 pm82 °FPassing clouds.10 mph40%29.77 "HgN/A
1:50 pm82 °FPassing clouds.10 mph48%29.77 "HgN/A
1:20 pm82 °FSunny.10 mph48%29.80 "Hg10 mi
12:50 pm82 °FPassing clouds.10 mph51%29.80 "HgN/A
12:20 pm81 °FPassing clouds.9 mph54%29.80 "HgN/A
Weather by CustomWeather, © 2021

See weather overview